Regional Weather Roundup
Issued by NWS Little Rock, AR

Home | Current Version | Previous Version | Text Only | Print | Product List | Glossary Off
Versions: 1 2 3 4 5 6 7 8 9 10 11 12 13 14 15 16 17 18 19 20 21 22 23 24 25 26 27 28 29 30 31 32 33 34 35 36 37 38 39 40 41 42 43 44 45 46 47 48 49 50

000
ASUS44 KLZK 010305
RWRLZK

WEATHER ROUNDUP FOR ARKANSAS
NATIONAL WEATHER SERVICE LITTLE ROCK AR
1000 PM CDT TUE JUN 30 2015

NOTE: "FAIR" INDICATES FEW OR NO CLOUDS BELOW 12,000 FEET WITH NO
SIGNIFICANT WEATHER AND/OR OBSTRUCTIONS TO VISIBILITY.

ARZ001-003-010-029-010400-
NORTHWEST ARKANSAS

CITY           SKY/WX    TMP DP  RH WIND       PRES   REMARKS
FAYETTEVILLE   CLEAR     76  73  91 SW6       29.98R
FORT SMITH     CLEAR     84  71  65 S5        29.93R HX  89
HARRISON       CLEAR     75  72  90 S5        29.99R
BENTONVILLE    CLEAR     79  70  73 S5        29.98R
ROGERS         CLEAR     79  71  76 S6        29.98R
SILOAM SPGS    CLEAR     79  68  69 S5        29.98R
HIGHFILL       CLEAR     78  73  84 SW5       29.97R
$$

ARZ004-005-016-010400-
NORTH CENTRAL ARKANSAS

CITY           SKY/WX    TMP DP  RH WIND       PRES   REMARKS
BATESVILLE     CLEAR     77  70  78 CALM      29.96R
FLIPPIN          N/A     77  72  83 CALM      29.94R
MTN HOME       CLEAR     76  70  82 S3        29.96R
$$

ARZ040-041-010400-
WEST CENTRAL ARKANSAS

CITY           SKY/WX    TMP DP  RH WIND       PRES   REMARKS
MENA           CLEAR     82  72  69 CALM      30.01R HX  87
MOUNT IDA      CLEAR     83  70  64 VRB3      29.97R HX  87
$$

ARZ009-017-025-026-028-010400-
NORTHEAST ARKANSAS

CITY           SKY/WX    TMP DP  RH WIND       PRES   REMARKS
JONESBORO      MOCLDY    80  69  69 SW9       29.94R
NEWPORT        PTCLDY    79  71  76 S6        29.96R
WALNUT RIDGE   MOCLDY    79  70  73 SW9       29.93S
BLYTHEVILLE    PTCLDY    80  70  71 SW6       29.95R
$$

ARZ022-023-033-042-044-010400-
CENTRAL ARKANSAS

CITY           SKY/WX    TMP DP  RH WIND       PRES   REMARKS
LITTLE ROCK    PTCLDY    82  71  69 S7        29.97R HX  86
N LITTLE ROCK  PTCLDY    83  73  70 S5        29.97R HX  89
JACKSONVILLE   MOCLDY    79  72  78 SE3       29.97R
SEARCY         PTCLDY    76  73  91 CALM      29.98R
HOT SPRINGS    PTCLDY    82  71  69 SW3       29.99R HX  86
RUSSELLVILLE   CLEAR     79  76  90 CALM      29.95R
CLINTON        FAIR      75  75 100 CALM      29.98R
$$

ARZ036-010400-
EAST ARKANSAS

CITY           SKY/WX    TMP DP  RH WIND       PRES   REMARKS
WEST MEMPHIS   CLEAR     77  71  82 SW6       29.96R
$$

ARZ050-053-066-070-073-010400-
SOUTHWEST ARKANSAS

CITY           SKY/WX    TMP DP  RH WIND       PRES   REMARKS
ARKADELPHIA    FAIR      79  77  94 SE3       29.99R
CAMDEN         CLEAR     81  68  65 NE8       30.00R
TEXARKANA      PTCLDY    79  71  76 S13G20    30.01R
EL DORADO      CLEAR     75  69  81 S8        30.04R
DE QUEEN       CLEAR     78  76  93 CALM      29.96R
$$

ARZ056-057-069-010400-
SOUTHEAST ARKANSAS

CITY           SKY/WX    TMP DP  RH WIND       PRES   REMARKS
PINE BLUFF     PTCLDY    80  75  84 S6        29.98R HX  85
STUTTGART      PTCLDY    81  72  74 MISG      29.98R
MONTICELLO     MOCLDY    81  72  74 SW17G25   30.02R HX  85

$$




USA.gov is the U.S. government's official web portal to all federal, state and local government web resources and services.